Regional Weather Roundup
Issued by NWS

Home | Current Version | Previous Version | Text Only | Print | Product List | Glossary On
Versions: 1 2 3 4 5 6 7 8 9 10 11 12 13 14 15 16 17 18 19 20 21 22 23 24 25 26 27 28 29 30 31 32 33 34 35 36 37 38 39 40 41 42 43 44 45 46 47 48 49 50
873
ASUS44 KLIX 291405
RWRLA
LOUISIANA WEATHER ROUNDUP
NATIONAL WEATHER SERVICE NEW ORLEANS LA
900 AM CDT FRI AUG 29 2014

NOTE: "FAIR" INDICATES FEW OR NO CLOUDS BELOW 12,000 FEET WITH NO
      SIGNIFICANT WEATHER AND/OR OBSTRUCTIONS TO VISIBILITY.
      SKY/WX - SKY CONDITION AND SIGNIFICANT WEATHER.
      TMP - AIR TEMPERATURE.    DP   - DEWPOINT TEMPERATURE.
      RH  - RELATIVE HUMIDITY.  PRES - PRESSURE.
      HX  - HEAT INDEX.         WCI  - WIND CHILL INDEX.

*  THESE STATIONS ARE NOT NWS OR FAA STATIONS AND ARE NOT UNDER
   NWS QUALITY CONTROL.

LAZ040-048-061>063-065-066-069-291500-
SOUTHEAST LOUISIANA

CITY           SKY/WX    TMP DP  RH WIND       PRES   REMARKS
N.O. AUDUBON     N/A    N/A N/A N/A MISG        N/A
N.O. INTL ARPT PTSUNNY   86  75  69 E7        29.94R HX  95
N.O. LAKEFRONT MOSUNNY   83  76  79 E9        29.95R
N.O. DOWNTOWN* FAIR      84  73  70 CALM      29.95R
SLIDELL        SUNNY     83  74  74 VRB3      29.95R
BATON ROUGE    SUNNY     82  74  76 NE3       29.95R
BOOTHVILLE     MOSUNNY   86  78  77 E10       29.95R HX  98
BELLE CHASSE   MOSUNNY   85  75  72 E8        29.94R
BOGALUSA*        N/A     82  73  73 E3        29.97S
GALLIANO*      NOT AVBL
NEW ROADS*     FAIR      81  76  83 E5        29.95R
GONZALES*      FAIR      82  78  85 E3        29.94R
HAMMOND*       SUNNY     84  72  65 E5        29.97R
HOUMA*         MOSUNNY   81  75  83 NE6       29.93R
PORT FOURCHON* MOSUNNY   86  77  74 E9        29.95R HX  97

$$

LAZ041-044-053-054-291500-
SOUTHWEST LOUISIANA

CITY           SKY/WX    TMP DP  RH WIND       PRES   REMARKS
LAKE CHARLES   SUNNY     80  75  84 E9        29.91S
LAFAYETTE      SUNNY     81  75  82 E5        29.94R
PATTERSON        N/A     81  77  89 E8        29.96S
SALT POINT       N/A     83  78  85 VRB5      29.93R
NEW IBERIA     SUNNY     82  76  81 E8        29.94R
CHENAULT AIRPK SUNNY     81  73  78 E7        29.93R

$$

LAZ027-028-291500-
CENTRAL LOUISIANA

CITY           SKY/WX    TMP DP  RH WIND       PRES   REMARKS
FORT POLK      SUNNY     80  73  79 SE7       29.94R
ALEXANDRIA INT SUNNY     82  74  76 E5        29.92F
ALEXANDRIA     SUNNY     82  75  79 E5        29.95S

$$

LAZ001-002-291500-
NORTHWEST LOUISIANA

CITY           SKY/WX    TMP DP  RH WIND       PRES   REMARKS
SHREVEPORT     MOSUNNY   82  73  74 CALM      29.94F
BARKSDALE AFB  PTSUNNY   82  73  73 S5        29.94F
DTN SHREVEPORT PTSUNNY   81  74  79 VRB3      29.94F

$$

LAZ014-016-291500-
NORTHEAST LOUISIANA

CITY           SKY/WX    TMP DP  RH WIND       PRES   REMARKS
MONROE         SUNNY     80  74  81 CALM      29.97F
TALLULAH       SUNNY     80  75  84 CALM      29.98S

$$




USA.gov is the U.S. government's official web portal to all federal, state and local government web resources and services.